> Flugplatz > 
Bitte achten Sie beim Anflug auf mögliche Fallschirmspringer auf der Nord seite desPlatzes, kontaktieren Sie zur Sicherheit den Flugleiter auf Leutkirch INFO 122,875.
Zollabfertigung:
für Ein- und Ausflug bei Voranmeldung mindestens 3 Stunden, nur Personenverkehr – keine Warenabfertigung.
Günstig Tanken:
Avgas 100 II · Super 95 · Jet A1 · Diesel
Achtung! Sommer-Öffnungszeiten:
15.03.2016 – 31.10.2016:
Täglich 09:00 – SS+30/20:00 (loc)
So/Hol  10:30 – SS+30/20:00 (loc)

Weitere Informationen finden Sie in unserem Newsbereich.

Nutzen Sie unsere Online-Anmeldung zur Zoll- und Passkontrolle.
Aktuelles:
Sicherheits- und Servicehinweise:
2016/09/28 14:50 EDJA 281450Z 23008KT CAVOK 19/10 Q1029
2016/09/28 14:50 EDNY 281450Z 21005KT CAVOK 20/14 Q1029
2016/09/28 14:20 ETHL 281420Z 22009KT 9999 FEW040 BKN300 20/11 Q1028 BLU+BLU+
Aktuelle METAR Daten (Memmingen, Friedrichshafen, Laupheim):